TimePST,TemperatureF,Dew PointF,Humidity,Sea Level PressureIn,VisibilityMPH,Wind Direction,Wind SpeedMPH,Gust SpeedMPH,PrecipitationIn,Events,Conditions,WindDirDegrees,DateUTC
12:53 AM,41.0,37.9,89,30.37,9.0,Calm,Calm,-,0.00,,Overcast,0,2012-12-09 08:53:00
1:09 AM,41.0,39.2,93,30.37,8.0,Calm,Calm,-,N/A,,Overcast,0,2012-12-09 09:09:00
1:38 AM,41.0,37.4,87,30.37,10.0,Calm,Calm,-,N/A,,Mostly Cloudy,0,2012-12-09 09:38:00
1:53 AM,41.0,37.9,89,30.38,8.0,Calm,Calm,-,N/A,,Overcast,0,2012-12-09 09:53:00
2:35 AM,39.2,37.4,93,30.38,10.0,Calm,Calm,-,0.00,Rain,Light Rain,0,2012-12-09 10:35:00
2:50 AM,41.0,37.4,87,30.38,10.0,Calm,Calm,-,0.00,,Overcast,0,2012-12-09 10:50:00
2:53 AM,41.0,37.9,89,30.39,10.0,Calm,Calm,-,0.00,,Overcast,0,2012-12-09 10:53:00
3:24 AM,41.0,37.4,87,30.39,10.0,Calm,Calm,-,N/A,,Overcast,0,2012-12-09 11:24:00
3:41 AM,41.0,37.4,87,30.39,10.0,ENE,3.5,-,N/A,,Overcast,70,2012-12-09 11:41:00
3:53 AM,41.0,37.9,89,30.39,10.0,Calm,Calm,-,N/A,,Overcast,0,2012-12-09 11:53:00
4:02 AM,41.0,37.4,87,30.39,10.0,Calm,Calm,-,N/A,,Overcast,0,2012-12-09 12:02:00
4:32 AM,41.0,37.4,87,30.40,10.0,Calm,Calm,-,N/A,,Overcast,0,2012-12-09 12:32:00
4:53 AM,41.0,37.9,89,30.40,10.0,East,3.5,-,N/A,,Overcast,90,2012-12-09 12:53:00
5:23 AM,41.0,37.4,87,30.39,10.0,SE,3.5,-,N/A,,Overcast,130,2012-12-09 13:23:00
5:53 AM,41.0,37.9,89,30.40,10.0,ESE,4.6,-,N/A,,Overcast,120,2012-12-09 13:53:00
6:06 AM,42.8,37.4,81,30.40,10.0,East,4.6,-,N/A,,Overcast,100,2012-12-09 14:06:00
6:53 AM,41.0,39.0,93,30.39,10.0,ESE,3.5,-,N/A,,Overcast,120,2012-12-09 14:53:00
7:17 AM,42.8,39.2,87,30.39,10.0,East,4.6,-,N/A,,Overcast,100,2012-12-09 15:17:00
7:53 AM,42.1,39.0,89,30.41,10.0,East,3.5,-,N/A,,Overcast,90,2012-12-09 15:53:00
8:24 AM,42.8,39.2,87,30.41,6.0,East,3.5,-,N/A,,Overcast,90,2012-12-09 16:24:00
8:33 AM,42.8,39.2,87,30.41,7.0,East,3.5,-,N/A,,Overcast,100,2012-12-09 16:33:00
8:41 AM,42.8,39.2,87,30.40,8.0,East,4.6,-,N/A,,Overcast,100,2012-12-09 16:41:00
8:53 AM,42.1,39.0,89,30.41,10.0,East,4.6,-,N/A,,Overcast,100,2012-12-09 16:53:00
9:46 AM,42.8,39.2,87,30.40,10.0,ESE,5.8,-,N/A,,Overcast,120,2012-12-09 17:46:00
9:53 AM,44.1,39.9,85,30.40,10.0,ESE,8.1,-,N/A,,Overcast,110,2012-12-09 17:53:00
10:30 AM,44.6,39.2,81,30.41,10.0,SE,4.6,-,N/A,,Overcast,130,2012-12-09 18:30:00
10:53 AM,44.1,39.9,85,30.40,10.0,ESE,5.8,-,N/A,,Overcast,120,2012-12-09 18:53:00
11:39 AM,44.6,41.0,87,30.38,10.0,ESE,6.9,-,N/A,,Overcast,120,2012-12-09 19:39:00
11:46 AM,44.6,41.0,87,30.38,10.0,ESE,5.8,-,N/A,,Overcast,110,2012-12-09 19:46:00
11:53 AM,45.0,41.0,86,30.38,10.0,ESE,8.1,-,N/A,,Overcast,120,2012-12-09 19:53:00
12:23 PM,44.6,41.0,87,30.38,10.0,ESE,6.9,-,N/A,,Overcast,120,2012-12-09 20:23:00
12:33 PM,44.6,41.0,87,30.37,10.0,ESE,6.9,-,N/A,,Overcast,120,2012-12-09 20:33:00
12:53 PM,45.0,41.0,86,30.37,9.0,ESE,5.8,-,N/A,,Overcast,110,2012-12-09 20:53:00
1:49 PM,44.6,41.0,87,30.36,4.0,ESE,5.8,-,0.00,,Overcast,110,2012-12-09 21:49:00
1:53 PM,44.1,42.1,93,30.36,3.0,ESE,5.8,-,0.00,,Overcast,110,2012-12-09 21:53:00
2:08 PM,44.6,42.8,93,30.36,2.5,ESE,4.6,-,N/A,,Overcast,110,2012-12-09 22:08:00
2:23 PM,44.6,42.8,93,30.36,2.5,East,5.8,-,0.01,Rain,Light Rain,100,2012-12-09 22:23:00
2:35 PM,44.6,42.8,93,30.36,3.0,East,4.6,-,0.01,Rain,Light Rain,100,2012-12-09 22:35:00
2:53 PM,44.1,42.1,93,30.35,4.0,ESE,5.8,-,0.01,,Overcast,110,2012-12-09 22:53:00
3:53 PM,45.0,43.0,93,30.35,3.0,East,4.6,-,0.01,,Overcast,100,2012-12-09 23:53:00
4:53 PM,45.0,43.0,93,30.35,10.0,ESE,5.8,-,N/A,,Overcast,110,2012-12-10 00:53:00
5:53 PM,46.0,44.1,93,30.36,6.0,ESE,3.5,-,0.01,Rain,Light Rain,120,2012-12-10 01:53:00
6:53 PM,46.0,44.1,93,30.36,6.0,East,4.6,-,0.04,Rain,Light Rain,100,2012-12-10 02:53:00
7:32 PM,46.4,44.6,93,30.36,9.0,ESE,4.6,-,0.01,,Overcast,110,2012-12-10 03:32:00
7:53 PM,46.0,44.1,93,30.36,10.0,ESE,3.5,-,0.01,Rain,Light Rain,110,2012-12-10 03:53:00
8:53 PM,46.9,45.0,93,30.35,10.0,SE,3.5,-,0.00,,Overcast,130,2012-12-10 04:53:00
9:53 PM,48.0,45.0,89,30.36,10.0,South,3.5,-,N/A,,Overcast,170,2012-12-10 05:53:00
10:53 PM,48.0,45.0,89,30.38,10.0,Calm,Calm,-,N/A,,Overcast,0,2012-12-10 06:53:00
11:53 PM,48.0,46.0,93,30.38,10.0,SE,3.5,-,N/A,,Overcast,130,2012-12-10 07:53:00